SCP
-0 0 0 0 0 0 -0 -0 -0 -0 -0 0 0 0 0 -0 0 0 0 0 0 0 0 0 0 0 0 -0 -0 -0 0 0 0 0 0 0 0 0 -0 0 0 -0 -0 -0 -0
-0 -0 -0 0 0 -0 -0 -0 -0 -0 0 0 0 0 0 0 0 0 0 0 0 0 0 0 0 -0 -0 -0 -0 0 0 0 0 0 0 0 0 0 0 0 0 -0 -0 -0 -0
-0 -0 -0 -0 0 -0 -0 -0 -0 -0 0 0 0 0 0 0 0 0 0 0 0 0 0 0 0 -0 -0 -0 0 0 0 0 0 0 0 0 0 0 0 0 0 0 -0 -0 0
-0 -0 -0 -0 -0 -0 -0 -0 -0 -0 -0 -0 0 0 0 0 0 0 0 0 0 0 0 0 0 0 0 0 0 0 0 0 0 0 0 0 0 0 0 0 0 -0 -0 0 0
-0 -0 -0 -0 -0 -0 -0 -0 -0 -0 -0 -0 0 0 0 0 0 0 0 0 0 0 0 0 0 0 0 0 0 0 0 0 0 0 0 0 0 0 0 0 0 -0 -0 0 0
-0 -0 -0 -0 -0 -0 -0 -0 -0 -0 -0 0 0 0 0 0 0 0 0 0 0 0 0 0 0 0 0 0 0 0 0 0 0 0 0 0 0 0 0 0 0 0 0 -0 0
-0 -0 -0 -0 -0 -0 -0 -0 -0 -0 -0 0 0 0 0 0 0 0 0 0 0 0 0 0 0 0 0 0 0 0 0 0 0 0 0 0 0 0 0 0 0 0 -0 0 -0
-0 -0 -0 -0 -0 -0 -0 -0 -0 -0 0 -0 0 0 0 0 0 0 0 0 0 0 0 0 0 0 0 0 0 0 0 0 0 0 0 0 0 0 0 0 0 0 0 0 -0
-0 -0 -0 -0 -0 -0 -0 -0 -0 0 0 -0 0 0 0 0 0 0 0 0 0 0 0 0 0 0 0 0 0 0 0 0 0 0 0 0 0 0 0 0 0 0 0 0 0
-0 -0 -0 -0 -0 -0 -0 -0 0 0 -0 -0 -0 0 0 0 0 0 0 0 0 0 0 0 0 0 0 0 0 0 0 0 0 0 0 0 0 0 0 0 0 0 0 0 0
-0 -0 -0 -0 -0 0 -0 -0 0 0 0 0 -0 0 -0 0 0 0 0 0 0 0 0 0 0 0 0 0 0 0 0 0 0 0 0 0 0 0 0 0 0 0 0 0 0
-0 -0 -0 -0 -0 0 -0 -0 -0 0 0 0 -0 -0 0 0 0 0 0 0 0 0 0 0 0 0 0 0 0 0 0 0 0 0 0 0 0 0 0 0 0 0 0 0 0
-0 -0 -0 -0 -0 -0 -0 -0 0 0 0 0 0 0 0 0 0 0 -0 0 0 0 0 0 0 0 0 0 0 0 0 0 0 0 0 0 0 0 0 0 0 0 0 0 0
0 -0 -0 -0 0 0 0 0 -0 -0 0 0 0 0 0 0 0 0 -0 0 0 0 0 0 0 0 0 0 0 0 0 0 0 0 0 0 0 0 0 0 0 0 0 0 0
-0 0 0 0 0 0 -0 0 0 -0 0 0 0 0 0 0 0 0 0 0 0 0 0 0 0 0 0 0 0 0 0 0 0 0 0 0 0 0 0 0 0 0 0 0 0
-0 -0 0 0 0 0 -0 0 0 0 0 0 0 0 0 0 0 0 0 0 0 0 0 0 0 0 0 0 0 0 0 0 0 0 0 0 0 0 0 0 0 0 0 0 0
0 -0 0 0 0 0 0 0 0 0 0 0 0 0 0 0 0 0 0 0 0 0 0 0 0 0 0 0 0 0 0 0 0 0 0 0 0 0 0 0 0 0 0 0 0
0 0 0 0 0 0 0 0 0 0 0 0 0 0 0 0 0 0 0 0 0 0 0 0 0 0 0 0 0 0 0 0 0 0 0 0 0 0 0 0 0 0 0 0 0
0 0 0 0 0 0 0 0 0 0 0 0 0 0 0 0 0 0 0 0 0 0 0 0 0 0 0 0 0 0 0 0 0 0 0 0 0 0 0 0 0 0 0 0 -0
0 0 0 0 0 0 0 0 0 0 0 0 0 0 0 0 0 0 0 0 0 0 0 0 0 0 0 0 0 0 0 0 0 0 0 0 0 0 0 0 0 0 -0 -0 0
0 0 0 0 0 0 0 0 0 0 0 0 0 0 0 0 0 0 0 0 0 0 0 0 0 0 0 0 0 0 0 0 0 0 0 0 0 0 0 0 0 0 0 0 0
0 0 0 0 0 0 0 0 0 0 0 0 0 0 0 0 0 0 0 0 0 0 0 0 0 0 0 0 0 0 0 0 0 0 0 0 0 0 0 0 0 0 0 0 0
0 0 0 0 0 0 0 0 0 0 0 0 0 0 0 0 0 0 0 0 0 0 0 0 0 0 0 0 0 0 0 0 0 0 0 0 0 0 0 0 0 0 0 0 0
0 0 0 0 0 0 0 0 0 0 0 0 0 0 0 0 0 0 0 0 0 0 0 0 0 0 0 0 0 0 0 0 0 0 0 0 0 0 0 0 0 0 0 0 0
0 0 0 0 0 0 0 0 0 0 0 0 0 0 0 0 0 0 0 0 0 0 0 0 0 0 0 0 0 0 0 0 0 0 0 0 0 0 0 0 0 0 0 0 0
0 0 0 0 0 0 0 0 0 0 0 0 0 0 0 0 0 0 0 0 0 0 0 0 0 0 0 0 0 0 0 0 0 0 0 0 0 0 0 0 0 0 0 0 0
0 0 0 0 0 0 0 0 0 0 0 0 0 0 0 0 0 0 0 0 0 0 0 0 0 0 0 0 0 0 0 0 0 0 0 0 0 0 0 0 0 0 0 0 0
Wind_Speed_500mb
38 29 22 18 18 18 20 23 23 18 11 5 2 4 6 6 6 8 5 5 10 3 9 14 15 12 6 3 1 2 2 9 5 0 6 4 12 12 13 20 14 8 9 15 30
45 34 25 19 19 20 22 24 22 17 12 5 4 4 4 2 3 3 6 12 6 9 15 15 12 9 6 3 1 2 3 6 2 1 8 20 22 13 9 13 17 24 30 31 33
54 42 32 26 23 23 24 24 20 16 11 6 6 8 6 5 9 6 12 9 6 14 15 10 7 10 5 2 4 2 4 4 14 7 8 15 19 10 13 17 10 17 32 36 33
60 49 38 32 28 25 24 22 19 15 10 7 9 11 11 11 6 2 5 9 7 15 11 9 7 5 5 5 2 4 3 6 10 10 8 12 13 17 26 11 15 27 31 31 25
59 55 47 35 31 27 25 22 18 12 10 11 12 12 9 8 7 3 5 8 10 16 9 9 12 6 6 4 3 2 6 3 8 14 21 28 30 20 25 18 24 29 30 27 22
58 57 49 39 32 28 26 22 16 11 11 14 14 12 12 11 13 12 13 13 22 14 13 13 7 8 8 3 3 4 4 4 8 12 16 26 14 5 16 13 23 25 24 21 15
56 57 52 38 29 27 27 24 16 13 13 14 13 11 11 8 9 11 13 13 14 11 13 13 11 6 4 5 7 1 4 4 16 6 10 26 15 14 11 17 23 22 19 18 14
54 56 55 40 26 31 27 18 15 16 14 13 14 10 6 6 3 3 6 7 7 5 7 8 6 6 4 3 7 6 4 8 10 6 7 9 9 5 7 18 19 19 17 16 14
50 53 54 41 24 34 22 21 11 9 12 13 9 9 5 7 3 7 3 3 3 5 4 3 3 4 5 6 5 6 8 5 1 13 3 2 11 4 6 14 15 15 15 15 15
46 48 50 39 26 31 31 17 4 1 10 10 6 3 5 15 5 15 5 2 5 5 6 5 5 4 4 8 15 9 8 4 2 9 15 22 20 9 10 14 13 13 14 14 16
42 44 44 39 25 28 29 21 21 6 38 13 13 15 23 2 2 12 8 3 3 4 5 4 8 13 17 8 5 8 13 11 5 7 13 17 16 11 11 14 13 13 12 13 15
42 41 39 37 15 25 26 28 22 16 18 36 22 26 24 16 4 9 11 6 3 5 3 4 5 6 7 11 9 11 17 9 11 9 9 14 11 7 10 8 7 8 9 11 13
40 40 38 33 14 18 14 27 31 19 11 14 7 10 10 16 11 16 16 9 4 5 5 4 5 12 9 14 15 5 5 7 5 14 18 16 10 11 7 9 8 9 10 11 12
40 39 38 34 15 29 6 21 30 23 6 8 3 5 15 10 5 16 23 5 4 1 7 2 2 12 16 8 2 7 5 11 13 3 2 3 7 8 12 15 15 16 16 15 13
38 41 34 31 29 20 18 15 24 9 8 2 4 4 18 10 9 13 21 10 4 5 5 4 6 15 7 2 5 7 8 9 7 7 4 6 9 5 2 20 25 21 21 19 18
38 38 37 33 30 21 18 11 10 1 5 5 5 7 10 2 3 8 6 6 6 5 6 4 2 3 5 8 6 21 10 11 7 1 9 2 6 11 10 13 11 26 26 23 22
40 38 35 31 28 19 9 3 1 4 6 5 3 3 10 9 8 7 10 9 6 7 5 4 4 4 4 11 9 3 6 5 6 6 5 4 8 10 5 14 12 33 33 28 26
45 41 34 25 21 11 7 4 5 2 9 6 5 0 14 14 7 6 8 9 3 5 5 10 8 1 5 2 6 5 5 9 8 7 7 5 10 1 5 7 12 26 25 25 28
45 41 29 24 13 17 14 4 8 10 4 13 12 5 7 9 8 10 14 11 11 16 9 11 9 2 9 4 3 10 6 5 9 3 7 6 6 10 2 8 14 24 27 33 31
45 42 17 13 8 29 6 7 8 8 6 1 6 4 7 12 18 15 15 6 11 9 4 12 7 1 5 2 23 2 16 5 2 6 11 6 10 12 11 15 19 31 39 40 34
35 20 7 19 20 12 8 11 10 15 9 3 4 6 4 5 9 11 13 6 7 8 6 10 4 7 5 5 11 8 7 8 3 3 8 10 6 6 13 22 27 39 44 43 40
15 7 8 7 3 1 9 10 11 7 6 9 7 13 7 8 6 9 17 1 8 18 13 3 6 7 5 4 6 3 5 11 10 10 5 7 11 5 8 10 27 34 40 40 39
11 17 23 19 8 9 6 7 12 14 11 6 5 10 3 10 5 6 7 3 7 8 16 16 3 8 6 6 4 8 7 7 10 4 15 13 8 5 2 4 8 23 32 31 30
6 6 6 7 11 7 9 14 20 20 14 13 16 7 5 7 1 10 8 3 2 7 12 9 6 8 18 2 6 9 16 17 10 11 14 22 19 13 10 13 18 21 18 18 20
9 7 5 4 4 2 2 4 15 21 19 15 7 22 16 11 7 9 6 6 4 8 5 3 8 7 3 3 8 8 18 22 21 19 18 26 28 28 15 10 10 7 1 7 11
8 7 4 7 12 10 5 6 11 15 13 9 12 23 23 16 16 19 16 11 9 6 5 2 7 7 6 10 11 17 21 22 27 23 22 28 35 30 11 13 12 14 18 21 23
19 23 7 7 2 5 8 11 7 9 19 27 21 15 20 20 12 4 11 15 15 15 10 10 13 9 11 2 7 18 34 33 20 16 18 23 18 19 20 22 20 19 18 19 20
Wind_Direction_500mb
28 23 21 17 19 12 3 1 355 351 346 321 247 213 220 241 264 264 273 168 165 140 133 138 148 157 162 158 175 117 100 69 76 205 86 99 123 80 89 103 75 55 120 147 164
32 32 28 22 21 16 5 3 359 2 8 22 100 147 175 207 285 274 184 173 160 133 127 133 138 144 143 143 22 338 60 6 343 238 115 86 94 90 111 95 64 82 112 130 146
31 32 28 27 21 14 7 4 360 11 23 48 106 121 118 97 104 65 163 173 152 146 129 117 123 134 118 80 29 64 31 332 349 35 71 88 76 58 114 62 43 135 124 134 149
27 25 25 25 21 14 6 2 8 16 33 71 101 107 103 100 97 26 155 201 189 158 128 100 112 99 99 101 359 276 12 267 352 358 69 77 78 65 55 49 102 123 128 135 138
26 22 19 19 14 9 4 9 13 27 54 85 99 96 96 82 48 74 157 175 168 145 120 114 102 116 107 106 137 346 16 122 22 88 74 102 70 84 64 77 115 123 131 133 145
23 22 16 9 7 12 16 18 25 43 70 93 84 73 96 73 62 99 95 128 138 125 99 99 99 107 99 79 55 328 310 35 79 103 117 107 60 110 57 97 113 127 125 132 144
18 18 14 7 5 16 18 21 34 57 76 75 47 45 94 90 84 99 99 101 122 120 93 82 74 79 105 128 1 124 162 68 51 69 106 110 45 61 73 117 112 109 98 111 110
11 13 12 8 13 11 9 26 55 69 66 36 32 42 72 102 114 110 98 84 125 125 91 70 64 94 65 83 29 35 52 196 45 18 99 256 120 104 65 129 103 94 88 87 90
6 10 11 9 15 18 28 34 56 53 27 358 346 2 110 46 4 214 163 83 24 166 135 84 110 107 117 147 142 32 189 225 157 33 212 215 141 141 105 132 105 94 86 77 73
0 5 11 12 13 17 14 5 46 356 11 344 30 66 121 343 49 182 187 355 135 161 167 181 106 155 128 198 195 150 148 119 176 23 61 102 120 144 115 128 111 98 89 84 76
355 359 8 13 23 28 18 13 12 347 330 272 283 285 290 43 65 187 184 131 158 113 164 35 209 205 187 190 139 136 124 124 66 59 81 91 127 135 136 135 132 115 109 104 96
349 353 1 9 17 18 29 47 18 309 301 296 276 252 254 265 239 207 176 187 158 151 160 198 205 187 147 161 145 152 137 105 100 58 91 150 126 147 153 154 162 153 146 132 117
347 347 352 3 13 350 7 17 2 347 276 302 253 237 218 200 195 202 199 181 164 180 202 216 108 156 165 143 141 79 139 154 100 102 82 152 159 183 162 167 176 200 197 176 155
344 344 347 352 1 1 2 353 347 339 319 288 247 182 167 154 195 184 195 166 134 133 142 173 67 157 141 120 143 145 133 118 118 212 296 277 253 224 196 211 210 206 209 199 180
340 339 342 342 336 350 339 328 332 336 329 45 161 162 167 174 137 178 189 206 186 132 219 79 137 147 152 89 188 112 72 74 85 94 252 173 253 145 212 239 224 216 215 204 187
333 335 336 330 331 329 334 314 318 353 266 343 153 173 152 145 130 129 159 156 115 106 56 57 27 33 89 70 50 144 92 63 66 69 247 39 256 244 201 238 223 207 213 204 191
324 326 328 320 314 317 336 312 251 212 336 27 343 191 183 182 200 171 167 149 193 180 161 80 27 8 128 108 98 122 143 260 231 207 280 119 248 292 283 234 253 203 201 200 193
319 321 324 310 302 287 156 67 194 290 268 327 7 196 206 174 201 152 144 180 150 125 138 177 180 30 11 4 162 155 222 250 270 257 305 171 243 172 333 298 232 204 198 201 204
318 319 325 302 284 182 158 155 231 208 318 343 318 195 201 197 213 173 198 208 197 182 205 174 187 65 35 102 291 144 182 54 104 67 271 287 270 236 168 161 181 194 200 210 210
326 327 328 302 238 169 129 221 226 221 309 321 286 235 231 189 180 187 190 170 187 203 212 179 141 93 125 54 53 240 134 160 130 262 274 234 274 259 214 204 182 196 207 214 215
327 330 216 29 166 183 209 212 227 236 226 240 279 290 260 205 212 184 197 162 184 135 104 149 204 150 193 214 188 150 165 67 108 245 267 281 249 221 232 205 201 205 210 216 219
320 289 216 354 240 287 217 192 209 211 172 279 245 241 240 182 168 190 194 270 168 154 161 127 116 155 175 1 290 18 164 183 230 220 226 290 256 15 296 238 221 224 224 227 224
300 271 275 277 227 216 247 244 237 241 235 232 272 230 201 197 194 177 174 43 167 147 160 177 129 150 176 174 146 217 172 134 108 124 197 228 246 36 38 348 252 244 242 242 243
282 289 282 207 223 220 229 242 236 240 253 227 249 183 170 196 338 170 159 35 56 110 139 125 134 204 240 254 126 179 186 177 196 213 226 232 254 209 264 285 282 279 282 268 253
218 241 271 298 97 10 286 313 235 231 227 213 219 213 183 179 163 186 153 145 76 151 84 173 177 185 207 217 199 207 199 193 212 234 232 261 232 257 267 249 283 289 67 91 91
230 228 251 269 298 289 222 215 242 244 198 206 221 224 204 187 186 192 175 197 184 162 133 27 143 160 216 212 233 251 242 234 238 247 254 262 270 264 203 157 136 119 111 97 89
235 247 270 269 272 233 253 252 269 344 247 243 225 215 212 226 190 210 165 146 166 163 146 151 144 158 243 255 234 264 240 237 231 228 251 250 279 181 167 154 143 126 113 99 88
Wind_Speed_850mb
38 29 22 18 18 18 20 23 23 18 11 5 2 4 6 6 6 8 5 5 10 3 9 14 15 12 6 3 1 2 2 9 5 0 6 4 12 12 13 20 14 8 9 15 30
45 34 25 19 19 20 22 24 22 17 12 5 4 4 4 2 3 3 6 12 6 9 15 15 12 9 6 3 1 2 3 6 2 1 8 20 22 13 9 13 17 24 30 31 33
54 42 32 26 23 23 24 24 20 16 11 6 6 8 6 5 9 6 12 9 6 14 15 10 7 10 5 2 4 2 4 4 14 7 8 15 19 10 13 17 10 17 32 36 33
60 49 38 32 28 25 24 22 19 15 10 7 9 11 11 11 6 2 5 9 7 15 11 9 7 5 5 5 2 4 3 6 10 10 8 12 13 17 26 11 15 27 31 31 25
59 55 47 35 31 27 25 22 18 12 10 11 12 12 9 8 7 3 5 8 10 16 9 9 12 6 6 4 3 2 6 3 8 14 21 28 30 20 25 18 24 29 30 27 22
58 57 49 39 32 28 26 22 16 11 11 14 14 12 12 11 13 12 13 13 22 14 13 13 7 8 8 3 3 4 4 4 8 12 16 26 14 5 16 13 23 25 24 21 15
56 57 52 38 29 27 27 24 16 13 13 14 13 11 11 8 9 11 13 13 14 11 13 13 11 6 4 5 7 1 4 4 16 6 10 26 15 14 11 17 23 22 19 18 14
54 56 55 40 26 31 27 18 15 16 14 13 14 10 6 6 3 3 6 7 7 5 7 8 6 6 4 3 7 6 4 8 10 6 7 9 9 5 7 18 19 19 17 16 14
50 53 54 41 24 34 22 21 11 9 12 13 9 9 5 7 3 7 3 3 3 5 4 3 3 4 5 6 5 6 8 5 1 13 3 2 11 4 6 14 15 15 15 15 15
46 48 50 39 26 31 31 17 4 1 10 10 6 3 5 15 5 15 5 2 5 5 6 5 5 4 4 8 15 9 8 4 2 9 15 22 20 9 10 14 13 13 14 14 16
42 44 44 39 25 28 29 21 21 6 38 13 13 15 23 2 2 12 8 3 3 4 5 4 8 13 17 8 5 8 13 11 5 7 13 17 16 11 11 14 13 13 12 13 15
42 41 39 37 15 25 26 28 22 16 18 36 22 26 24 16 4 9 11 6 3 5 3 4 5 6 7 11 9 11 17 9 11 9 9 14 11 7 10 8 7 8 9 11 13
40 40 38 33 14 18 14 27 31 19 11 14 7 10 10 16 11 16 16 9 4 5 5 4 5 12 9 14 15 5 5 7 5 14 18 16 10 11 7 9 8 9 10 11 12
40 39 38 34 15 29 6 21 30 23 6 8 3 5 15 10 5 16 23 5 4 1 7 2 2 12 16 8 2 7 5 11 13 3 2 3 7 8 12 15 15 16 16 15 13
38 41 34 31 29 20 18 15 24 9 8 2 4 4 18 10 9 13 21 10 4 5 5 4 6 15 7 2 5 7 8 9 7 7 4 6 9 5 2 20 25 21 21 19 18
38 38 37 33 30 21 18 11 10 1 5 5 5 7 10 2 3 8 6 6 6 5 6 4 2 3 5 8 6 21 10 11 7 1 9 2 6 11 10 13 11 26 26 23 22
40 38 35 31 28 19 9 3 1 4 6 5 3 3 10 9 8 7 10 9 6 7 5 4 4 4 4 11 9 3 6 5 6 6 5 4 8 10 5 14 12 33 33 28 26
45 41 34 25 21 11 7 4 5 2 9 6 5 0 14 14 7 6 8 9 3 5 5 10 8 1 5 2 6 5 5 9 8 7 7 5 10 1 5 7 12 26 25 25 28
45 41 29 24 13 17 14 4 8 10 4 13 12 5 7 9 8 10 14 11 11 16 9 11 9 2 9 4 3 10 6 5 9 3 7 6 6 10 2 8 14 24 27 33 31
45 42 17 13 8 29 6 7 8 8 6 1 6 4 7 12 18 15 15 6 11 9 4 12 7 1 5 2 23 2 16 5 2 6 11 6 10 12 11 15 19 31 39 40 34
35 20 7 19 20 12 8 11 10 15 9 3 4 6 4 5 9 11 13 6 7 8 6 10 4 7 5 5 11 8 7 8 3 3 8 10 6 6 13 22 27 39 44 43 40
15 7 8 7 3 1 9 10 11 7 6 9 7 13 7 8 6 9 17 1 8 18 13 3 6 7 5 4 6 3 5 11 10 10 5 7 11 5 8 10 27 34 40 40 39
11 17 23 19 8 9 6 7 12 14 11 6 5 10 3 10 5 6 7 3 7 8 16 16 3 8 6 6 4 8 7 7 10 4 15 13 8 5 2 4 8 23 32 31 30
6 6 6 7 11 7 9 14 20 20 14 13 16 7 5 7 1 10 8 3 2 7 12 9 6 8 18 2 6 9 16 17 10 11 14 22 19 13 10 13 18 21 18 18 20
9 7 5 4 4 2 2 4 15 21 19 15 7 22 16 11 7 9 6 6 4 8 5 3 8 7 3 3 8 8 18 22 21 19 18 26 28 28 15 10 10 7 1 7 11
8 7 4 7 12 10 5 6 11 15 13 9 12 23 23 16 16 19 16 11 9 6 5 2 7 7 6 10 11 17 21 22 27 23 22 28 35 30 11 13 12 14 18 21 23
19 23 7 7 2 5 8 11 7 9 19 27 21 15 20 20 12 4 11 15 15 15 10 10 13 9 11 2 7 18 34 33 20 16 18 23 18 19 20 22 20 19 18 19 20
Wind_Direction_850mb
28 23 21 17 19 12 3 1 355 351 346 321 247 213 220 241 264 264 273 168 165 140 133 138 148 157 162 158 175 117 100 69 76 205 86 99 123 80 89 103 75 55 120 147 164
32 32 28 22 21 16 5 3 359 2 8 22 100 147 175 207 285 274 184 173 160 133 127 133 138 144 143 143 22 338 60 6 343 238 115 86 94 90 111 95 64 82 112 130 146
31 32 28 27 21 14 7 4 360 11 23 48 106 121 118 97 104 65 163 173 152 146 129 117 123 134 118 80 29 64 31 332 349 35 71 88 76 58 114 62 43 135 124 134 149
27 25 25 25 21 14 6 2 8 16 33 71 101 107 103 100 97 26 155 201 189 158 128 100 112 99 99 101 359 276 12 267 352 358 69 77 78 65 55 49 102 123 128 135 138
26 22 19 19 14 9 4 9 13 27 54 85 99 96 96 82 48 74 157 175 168 145 120 114 102 116 107 106 137 346 16 122 22 88 74 102 70 84 64 77 115 123 131 133 145
23 22 16 9 7 12 16 18 25 43 70 93 84 73 96 73 62 99 95 128 138 125 99 99 99 107 99 79 55 328 310 35 79 103 117 107 60 110 57 97 113 127 125 132 144
18 18 14 7 5 16 18 21 34 57 76 75 47 45 94 90 84 99 99 101 122 120 93 82 74 79 105 128 1 124 162 68 51 69 106 110 45 61 73 117 112 109 98 111 110
11 13 12 8 13 11 9 26 55 69 66 36 32 42 72 102 114 110 98 84 125 125 91 70 64 94 65 83 29 35 52 196 45 18 99 256 120 104 65 129 103 94 88 87 90
6 10 11 9 15 18 28 34 56 53 27 358 346 2 110 46 4 214 163 83 24 166 135 84 110 107 117 147 142 32 189 225 157 33 212 215 141 141 105 132 105 94 86 77 73
0 5 11 12 13 17 14 5 46 356 11 344 30 66 121 343 49 182 187 355 135 161 167 181 106 155 128 198 195 150 148 119 176 23 61 102 120 144 115 128 111 98 89 84 76
355 359 8 13 23 28 18 13 12 347 330 272 283 285 290 43 65 187 184 131 158 113 164 35 209 205 187 190 139 136 124 124 66 59 81 91 127 135 136 135 132 115 109 104 96
349 353 1 9 17 18 29 47 18 309 301 296 276 252 254 265 239 207 176 187 158 151 160 198 205 187 147 161 145 152 137 105 100 58 91 150 126 147 153 154 162 153 146 132 117
347 347 352 3 13 350 7 17 2 347 276 302 253 237 218 200 195 202 199 181 164 180 202 216 108 156 165 143 141 79 139 154 100 102 82 152 159 183 162 167 176 200 197 176 155
344 344 347 352 1 1 2 353 347 339 319 288 247 182 167 154 195 184 195 166 134 133 142 173 67 157 141 120 143 145 133 118 118 212 296 277 253 224 196 211 210 206 209 199 180
340 339 342 342 336 350 339 328 332 336 329 45 161 162 167 174 137 178 189 206 186 132 219 79 137 147 152 89 188 112 72 74 85 94 252 173 253 145 212 239 224 216 215 204 187
333 335 336 330 331 329 334 314 318 353 266 343 153 173 152 145 130 129 159 156 115 106 56 57 27 33 89 70 50 144 92 63 66 69 247 39 256 244 201 238 223 207 213 204 191
324 326 328 320 314 317 336 312 251 212 336 27 343 191 183 182 200 171 167 149 193 180 161 80 27 8 128 108 98 122 143 260 231 207 280 119 248 292 283 234 253 203 201 200 193
319 321 324 310 302 287 156 67 194 290 268 327 7 196 206 174 201 152 144 180 150 125 138 177 180 30 11 4 162 155 222 250 270 257 305 171 243 172 333 298 232 204 198 201 204
318 319 325 302 284 182 158 155 231 208 318 343 318 195 201 197 213 173 198 208 197 182 205 174 187 65 35 102 291 144 182 54 104 67 271 287 270 236 168 161 181 194 200 210 210
326 327 328 302 238 169 129 221 226 221 309 321 286 235 231 189 180 187 190 170 187 203 212 179 141 93 125 54 53 240 134 160 130 262 274 234 274 259 214 204 182 196 207 214 215
327 330 216 29 166 183 209 212 227 236 226 240 279 290 260 205 212 184 197 162 184 135 104 149 204 150 193 214 188 150 165 67 108 245 267 281 249 221 232 205 201 205 210 216 219
320 289 216 354 240 287 217 192 209 211 172 279 245 241 240 182 168 190 194 270 168 154 161 127 116 155 175 1 290 18 164 183 230 220 226 290 256 15 296 238 221 224 224 227 224
300 271 275 277 227 216 247 244 237 241 235 232 272 230 201 197 194 177 174 43 167 147 160 177 129 150 176 174 146 217 172 134 108 124 197 228 246 36 38 348 252 244 242 242 243
282 289 282 207 223 220 229 242 236 240 253 227 249 183 170 196 338 170 159 35 56 110 139 125 134 204 240 254 126 179 186 177 196 213 226 232 254 209 264 285 282 279 282 268 253
218 241 271 298 97 10 286 313 235 231 227 213 219 213 183 179 163 186 153 145 76 151 84 173 177 185 207 217 199 207 199 193 212 234 232 261 232 257 267 249 283 289 67 91 91
230 228 251 269 298 289 222 215 242 244 198 206 221 224 204 187 186 192 175 197 184 162 133 27 143 160 216 212 233 251 242 234 238 247 254 262 270 264 203 157 136 119 111 97 89
235 247 270 269 272 233 253 252 269 344 247 243 225 215 212 226 190 210 165 146 166 163 146 151 144 158 243 255 234 264 240 237 231 228 251 250 279 181 167 154 143 126 113 99 88